Weather History for KDXR - October, 2012

Change the Weather History Date:

Saturday, October 13, 2012

  Actual Average Record
Temperature  
Mean Temperature 40 °F -  
Max Temperature 52 °F 62 °F 86 °F (1954)
Min Temperature 27 °F 43 °F 26 °F (1981)
Degree Days  
Heating Degree Days 26    
Moisture  
Dew Point 26 °F    
Average Humidity 60    
Maximum Humidity 89    
Minimum Humidity 32    
Precipitation  
Precipitation 0.00 in - - ()
Sea Level Pressure  
Sea Level Pressure 30.45 in    
Wind  
Wind Speed 2 mph (SSW)    
Max Wind Speed 12 mph    
Max Gust Speed 16 mph    
Visibility 10 miles    
Events      
Averages and records for this station are not official NWS values.
T = Trace of Precipitation, MM = Missing Value Source: NWS Daily Summary

Daily Weather History Graph

Daily Weather History Graph

Search for Another Location

Airport or City:

Trip Planner

Search our weather history database for the weather conditions in past years. The results will help you decide how hot, cold, wet, or windy it might be!

Date:

Astronomy

Oct. 13, 2012 Rise Set
Actual Time 7:04 AM EDT 6:15 PM EDT
Civil Twilight 6:36 AM EDT 6:43 PM EDT
Nautical Twilight 6:04 AM EDT 7:15 PM EDT
Astronomical Twilight 5:32 AM EDT 7:47 PM EDT
Moon 4:49 AM EDT (10/13) 4:58 PM EDT (10/13)
Length of Visible Light 12h 06m
Length of Day
11h 11m
Waning Crescent, 5% of the Moon is Illuminated
Oct 13
Waning Crescent
Oct 15
New
Oct 21
First Quarter
Oct 29
Full
Nov 6
Last Quarter

Hourly Weather History & Observations

Time (EDT) Temp. Windchill Dew Point Humidity Pressure Visibility Wind Dir Wind Speed Gust Speed Precip Events Conditions
12:53 AM 32.0 °F - 26.1 °F 79% 30.45 in 10.0 mi Calm Calm - N/A   Clear
1:53 AM 30.0 °F - 26.1 °F 85% 30.45 in 10.0 mi Calm Calm - N/A   Clear
2:53 AM 28.9 °F - 25.0 °F 85% 30.45 in 10.0 mi Calm Calm - N/A   Clear
3:53 AM 28.9 °F - 25.0 °F 85% 30.46 in 10.0 mi Calm Calm - N/A   Clear
4:53 AM 28.0 °F - 25.0 °F 88% 30.48 in 10.0 mi Calm Calm - N/A   Clear
5:53 AM 27.0 °F - 24.1 °F 89% 30.49 in 10.0 mi Calm Calm - N/A   Clear
6:53 AM 28.0 °F - 24.1 °F 85% 30.50 in 10.0 mi Calm Calm - N/A   Clear
7:53 AM 28.9 °F - 26.1 °F 89% 30.51 in 10.0 mi Calm Calm - N/A   Clear
8:53 AM 36.0 °F - 27.0 °F 70% 30.52 in 10.0 mi Calm Calm - N/A   Clear
9:53 AM 44.1 °F - 26.1 °F 49% 30.52 in 10.0 mi Calm Calm - N/A   Clear
10:53 AM 46.0 °F - 23.0 °F 40% 30.52 in 10.0 mi Calm Calm - N/A   Clear
11:53 AM 46.9 °F - 23.0 °F 39% 30.51 in 10.0 mi Calm Calm - N/A   Clear
12:53 PM 48.9 °F - 23.0 °F 36% 30.47 in 10.0 mi WSW 11.5 mph - N/A   Clear
1:53 PM 50.0 °F - 21.0 °F 32% 30.43 in 10.0 mi Variable 4.6 mph - N/A   Clear
2:53 PM 52.0 °F - 23.0 °F 32% 30.41 in 10.0 mi SW 8.1 mph 16.1 mph N/A   Clear
3:53 PM 51.1 °F - 21.9 °F 32% 30.40 in 10.0 mi WSW 8.1 mph - N/A   Clear
4:53 PM 51.1 °F - 23.0 °F 33% 30.39 in 10.0 mi WSW 5.8 mph - N/A   Clear
5:53 PM 48.9 °F - 24.1 °F 38% 30.40 in 10.0 mi SSW 4.6 mph - N/A   Clear
6:53 PM 46.0 °F 43.9 °F 28.0 °F 50% 30.39 in 10.0 mi South 4.6 mph - N/A   Clear
8:53 PM 46.9 °F - 32.0 °F 56% 30.38 in 10.0 mi South 5.8 mph - N/A   Clear
9:53 PM 46.0 °F 43.1 °F 34.0 °F 63% 30.35 in 10.0 mi South 5.8 mph - N/A   Clear
10:53 PM 46.0 °F 43.9 °F 36.0 °F 68% 30.34 in 10.0 mi South 4.6 mph - N/A   Clear